Regional Weather Roundup
Issued by NWS Green Bay, WI

Home | Current Version | Previous Version | Text Only | Print | Product List | Glossary On
Versions: 1 2 3 4 5 6 7 8 9 10 11 12 13 14 15 16 17 18 19 20 21 22 23 24 25 26 27 28 29 30 31 32 33 34 35 36 37 38 39 40 41 42 43 44 45 46 47 48 49 50
000
ASUS43 KGRB 251800
RWRGRB

NORTH-CENTRAL AND NORTHEAST WISCONSIN REGIONAL WEATHER ROUNDUP
NATIONAL WEATHER SERVICE GREEN BAY WI
100 PM CDT MON SEP 25 2017

WIZ005-009-010>012-018-019-251900-
NORTH CENTRAL WISCONSIN

CITY           SKY/WX    TMP DP  RH WIND       PRES   REMARKS
IRONWOOD       CLOUDY    65  61  87 NW8       30.00S
MANITOWISH WTR NOT AVBL
ARBOR VITAE    NOT AVBL
EAGLE RIVER    NOT AVBL
LAND O LAKES   NOT AVBL
RHINELANDER    MOSUNNY   80  65  59 S5        29.99F
PHILLIPS       CLOUDY    77  65  66 CALM      29.97F
ANTIGO         NOT AVBL
TOMAHAWK       NOT AVBL
MERRILL        NOT AVBL
$$

WIZ013-073-251900-
NORTHEAST WISCONSIN

CITY           SKY/WX    TMP DP  RH WIND       PRES   REMARKS
IRON MOUNTAIN  MOSUNNY   85  64  49 S6        29.96F
MARINETTE      SUNNY     82  67  60 S6        29.97F
$$

WIZ017-030-035>037-045-251900-
CENTRAL WISCONSIN

CITY           SKY/WX    TMP DP  RH WIND       PRES   REMARKS
MEDFORD        NOT AVBL
WAUSAU         MOSUNNY   83  63  50 S5        29.95F
MOSINEE        MOSUNNY   82  64  54 S8        29.98F
MARSHFIELD     CLOUDY    84  63  49 SW5       29.95F
WISC RAPIDS    SUNNY     88  65  46 SW9       29.96F HX  90
STEVENS POINT  NOT AVBL
WAUPACA        NOT AVBL
SHAWANO        NOT AVBL
CLINTONVILLE   NOT AVBL
WAUTOMA        SUNNY     87  65  47 SE7       29.95
$$

WIZ038-039-048-051-251900-
FOX VALLEY

CITY           SKY/WX    TMP DP  RH WIND       PRES   REMARKS
NWS GREEN BAY  SUNNY     88  63  43 SW6       29.96F
APPLETON       MOSUNNY   84  63  48 SE7       29.96F
OSHKOSH        SUNNY     86  66  51 S6        29.96F
FOND DU LAC    SUNNY     87  62  43 SW8       29.97F
$$

WIZ022-050-052-251900-
EAST CENTRAL WISCONSIN

CITY           SKY/WX    TMP DP  RH WIND       PRES   REMARKS
EPHRAIM        NOT AVBL
WASHINGTON ISL NOT AVBL
STURGEON BAY   PTSUNNY   82  69  64 E7        29.99F
MANITOWOC      SUNNY     79  66  64 SE9       29.99F
SHEBOYGAN      SUNNY     84  70  62 SE7       29.98F
$$

LMZ563-521-522-541>543-251900-
LAKESHORE

STATION/POSITION TIME  TEMP    WIND        PRES    VSBY  WAVE
                       AIR SEA DIR/SP/G                  HT/PER
                 (UTC) (F)     (DEG/KT/KT) (MB)    (MI)  (FT/S)
SHEBOYGAN LKSHOR 1700   71     170/ 13/ 13 1015.1F
KEWAUNEE LKSHORE 1730   67     180/  7/  7 1014.8F
NORTHPORT PIER   1740   74     140/  5/  8 1014.9F
N MID LAKE BUOY  1650   69 67  180/ 10/ 12 1016.0F         1/ 4
S GREEN BAY BUOY 1700   73 70  120/  2/  2 1015.1F
SISTER BAY LKSHO 1704   85     160/  5/  8   N/A
MENOMINEE LKSHOR 1730   76     160/  7/  9 1014.6F
$$




USA.gov is the U.S. government's official web portal to all federal, state and local government web resources and services.